Location: ?p Thanh B�nh
(16.5833°N, 107.5333°E)
Time: 05:29:17
(UTC+00:00)

H-2A R/B - Pass Details

Date: 29 October 2020
Orbit: 577 x 656 km, 98.5° (Epoch: 27 November)

Event Time Altitude Azimuth Distance (km) Brightness Sun altitude
Rises 21:19:38 0° 173° (S) 2,966 5.8 -21.3°
Reaches altitude 10° 21:21:52 10° 176° (S) 2,053 4.9 -20.8°
Maximum altitude 21:26:19 65° 258° (WSW) 710 2.0 -19.7°
Enters shadow 21:29:06 22° 335° (NNW) 1,397 3.5 -19.1°
